Retour au catalogue

DELTA 1 DEB

ActifSSO
NORAD 13566·DEBRIS·🇺🇸 United States

Lancé Mar 5, 1978 depuis Vandenberg Space Force Base

Loading…

Prochains Passages (prochaines 24 heures)

TLE

FraisSource: Space-Track

Époque: Sep 14, 2026, 01:11 UTC

1 13566U 78026FD  26257.04962250  .00000625  00000-0  22468-3 0  9992
2 13566  98.6596 296.3275 0033918 135.4673 254.7926 14.36976956298373

Suivez DELTA 1 DEB en temps réel avec AllMySat

Download on the App Store